This demonstration page uses our WeatherBlox Daily Observations layout. Learn more.

Left ArrowRight Arrow

39.08367, -84.50855

Hourly Observations for March 30, 2019

Temp ( °F °C ) Dew Point ( °F °C ) Humidity (%) Winds ( mph kmh ) Pressure ( in mb ) Visibility ( mi km ) Precip ( " mm )
12:53 am 00:53 Cloudy 56 13.3 52 11.1 87 87 S 5 7 29.95 1014 10 16 0.01 0.25
1:53 am 01:53 Cloudy 54 12.2 51 10.6 90 90 SSW 3 6 29.93 1014 10 16 N/A
2:53 am 02:53 Mostly Cloudy 54 12.2 50 10 87 87 S 5 7 29.91 1013 10 16 N/A
3:53 am 03:53 Mostly Cloudy 55 12.8 50 10 83 83 SSW 10 17 29.88 1012 10 16 N/A
4:53 am 04:53 Cloudy 56 13.3 49 9.4 77 77 S 12 19 29.85 1011 10 16 N/A
5:53 am 05:53 Cloudy 56 13.3 49 9.4 77 77 S 9 15 29.84 1011 10 16 N/A
6:53 am 06:53 Cloudy 57 13.9 48 8.9 72 72 S 10 17 29.83 1010 10 16 N/A
7:53 am 07:53 Cloudy with Light Rain 57 13.9 48 8.9 72 72 S 10 17 29.83 1010 10 16 N/A
8:53 am 08:53 Cloudy 58 14.4 48 8.9 70 70 S 12 19 29.82 1010 10 16 N/A
9:53 am 09:53 Cloudy with Light Rain 58 14.4 49 9.4 72 72 S 17 28 29.77 1008 5 8 0.04 1.02
10:01 am 10:01 Cloudy with Light Rain 57 13.9 50 10 78 78 SW 10 17 29.81 1009 10 16 N/A
10:53 am 10:53 Cloudy with Light Rain 59 15 51 10.6 75 75 S 14 22 29.80 1009 10 16 N/A
11:53 am 11:53 Cloudy with Light Rain 59 15 52 11.1 78 78 SSW 10 17 29.79 1009 9 14 0.01 0.25
12:53 pm 12:53 Cloudy 62 16.7 52 11.1 70 70 SSW 17 28 29.78 1009 10 16 0.04 1.02
1:53 pm 13:53 Cloudy with Heavy Rain 60 15.6 54 12.2 80 80 SSW 16 26 29.76 1008 5 8 0.13 3.30
2:53 pm 14:53 Cloudy with Light Rain 63 17.2 54 12.2 73 73 SSW 17 28 29.74 1007 10 16 0.01 0.25
3:53 pm 15:53 Cloudy with Light Rain 62 16.7 55 12.8 78 78 SSW 18 30 29.71 1006 7 11 N/A
4:53 pm 16:53 Cloudy with Light Rain 62 16.7 56 13.3 80 80 SW 12 19 29.68 1005 8 13 0.03 0.76
5:53 pm 17:53 Cloudy with Rain 60 15.6 57 13.9 90 90 SSW 6 9 29.67 1005 4 6 0.12 3.05
6:44 pm 18:44 Cloudy with Heavy Rain 59 15 57 13.9 93 93 W 10 17 29.66 1004 2 3 0.17 4.32
6:49 pm 18:49 Cloudy with Heavy Rain 57 14 55 13 94 94 NNW 9 15 29.66 1004 2 3 0.21 5.33
6:53 pm 18:53 Cloudy with Heavy Rain 56 13.3 53 11.7 90 90 W 9 15 29.65 1004 2 3 0.24 6.10
7:37 pm 19:37 Cloudy with Light Rain 51 10.6 50 10 96 96 N 7 11 29.65 1004 6 10 0.33 8.38
7:53 pm 19:53 Cloudy with Heavy Rain 49 9.4 47 8.3 93 93 N 16 26 29.65 1004 4 6 0.38 9.65
8:53 pm 20:53 Cloudy with Rain 46 7.8 42 5.6 86 86 NW 12 19 29.76 1008 5 8 0.46 11.68
9:27 pm 21:27 Cloudy with Heavy Rain 42 5.6 38 3.3 85 85 NW 16 26 29.86 1011 4 6 0.19 4.83
9:46 pm 21:46 Cloudy with Heavy Rain 40 4.4 36 2.2 86 86 N 16 26 29.82 1010 3 5 0.28 7.11
9:53 pm 21:53 Cloudy with Rain 40 4.4 36 2.2 86 86 NNE 13 20 29.80 1009 5 8 0.29 7.37
10:53 pm 22:53 Cloudy 40 4.4 35 1.7 83 83 NNW 12 19 29.87 1011 10 16 0.02 0.51
11:53 pm 23:53 Cloudy with Light Rain 39 3.9 34 1.1 82 82 NW 8 13 29.91 1013 10 16 N/A

Powered by AerisWeather